Cairns, Australia

1:45 PM AEST on May 29, 2017 (GMT +1000)
Cairns International

Weather History for YBCS - April, 2014

Change the Weather History Date:

Monday, April 7, 2014

  Actual Average Record
Temperature  
Mean Temperature 79 °F -  
Max Temperature 86 °F 84 °F 91 °F (2009)
Min Temperature 72 °F 70 °F 62 °F (1997)
Cooling Degree Days 14    
Growing Degree Days 29 (Base 50)    
Moisture  
Dew Point 69 °F    
Average Humidity 69    
Maximum Humidity 83    
Minimum Humidity 47    
Precipitation  
Precipitation 0.00 in 0.26 in - ()
Sea Level Pressure  
Sea Level Pressure 29.88 in    
Wind  
Wind Speed 13 mph ()    
Max Wind Speed 26 mph    
Max Gust Speed 37 mph    
Visibility 7.1 miles    
Events      
Averages and records for this station are not official NWS values.
T = Trace of Precipitation, MM = Missing Value Source: Averaged Metar Reports

Daily Weather History Graph

Daily Weather History Graph

Search for Another Location

Airport or City:

Trip Planner

Search our weather history database for the weather conditions in past years. The results will help you decide how hot, cold, wet, or windy it might be!

Date:

Astronomy

Apr. 07, 2014 Rise Set
Actual Time 6:23 AM AEST 6:14 PM AEST
Civil Twilight 6:02 AM AEST 6:36 PM AEST
Nautical Twilight 5:37 AM AEST 7:01 PM AEST
Astronomical Twilight 5:11 AM AEST 7:26 PM AEST
Moon 12:38 PM AEST (4/7) No Moon Set
Length of Visible Light 12h 33m
Length of Day
11h 50m
Waxing Crescent, 47% of the Moon is Illuminated
Apr 7
Waxing Crescent
Apr 7
First Quarter
Apr 15
Full
Apr 22
Last Quarter
Apr 29
New

Hourly Weather History & Observations

Time (AEST) Temp. Heat Index Dew Point Humidity Pressure Visibility Wind Dir Wind Speed Gust Speed Precip Events Conditions
12:00 AM 76 °F - 70 °F 77% 29.92 in - South 9.2 mph - -  
12:00 AM 77.0 °F - 69.8 °F 78% 29.92 in 6.2 mi South 9.2 mph - N/A   Partly Cloudy
12:30 AM 77.0 °F - 69.8 °F 78% 29.89 in 6.2 mi South 8.1 mph - N/A   Partly Cloudy
1:00 AM 76 °F - 70 °F 75% 29.90 in - South 9.2 mph - -  
1:00 AM 75.2 °F - 69.8 °F 83% 29.89 in 6.2 mi South 9.2 mph - N/A   Partly Cloudy
1:30 AM 75.2 °F - 69.8 °F 83% 29.89 in 6.2 mi South 9.2 mph - N/A   Partly Cloudy
2:00 AM 77.0 °F - 69.8 °F 78% 29.86 in 6.2 mi South 10.4 mph - N/A   Partly Cloudy
2:30 AM 75.2 °F - 69.8 °F 83% 29.86 in 6.2 mi South 11.5 mph - N/A   Partly Cloudy
3:00 AM 76 °F - 69 °F 72% 29.86 in - South 10.4 mph - -  
3:00 AM 75.2 °F - 68.0 °F 78% 29.86 in 6.2 mi South 10.4 mph - N/A   Partly Cloudy
3:30 AM 75.2 °F - 68.0 °F 78% 29.83 in 6.2 mi South 9.2 mph - N/A   Partly Cloudy
4:00 AM 76 °F - 68 °F 69% 29.86 in - South 10.4 mph - -  
4:00 AM 75.2 °F - 68.0 °F 78% 29.83 in 6.2 mi South 10.4 mph - N/A   Partly Cloudy
4:30 AM 77.0 °F - 68.0 °F 74% 29.83 in 6.2 mi SSW 8.1 mph - N/A   Partly Cloudy
5:00 AM 73.4 °F - 68.0 °F 83% 29.86 in 6.2 mi SE 9.2 mph - N/A   Partly Cloudy
5:30 AM 73.4 °F - 68.0 °F 83% 29.86 in 6.2 mi SE 9.2 mph - N/A   Partly Cloudy
6:00 AM 76 °F - 68 °F 70% 29.87 in 16 mi South 9.2 mph - -   Scattered Clouds
6:00 AM 75.2 °F - 68.0 °F 78% 29.86 in 6.2 mi South 9.2 mph - N/A   Partly Cloudy
6:30 AM 73.4 °F - 68.0 °F 83% 29.86 in 6.2 mi SE 8.1 mph - N/A   Mostly Cloudy
7:00 AM 76 °F - 69 °F 72% 29.89 in - SSE 12.7 mph - -  
7:00 AM 77.0 °F - 68.0 °F 74% 29.89 in 6.2 mi SSE 12.7 mph - N/A   Mostly Cloudy
7:30 AM 77.0 °F - 69.8 °F 78% 29.89 in 6.2 mi South 11.5 mph - N/A   Mostly Cloudy
8:00 AM 77.0 °F - 69.8 °F 78% 29.89 in 6.2 mi South 12.7 mph - N/A   Scattered Clouds
8:30 AM 78.8 °F - 71.6 °F 78% 29.89 in 6.2 mi SSE 15.0 mph - N/A   Scattered Clouds
9:00 AM 82 °F - 71 °F 61% 29.91 in 19 mi South 12.7 mph - -   Partly Cloudy
9:00 AM 82.4 °F 87.2 °F 71.6 °F 70% 29.92 in 6.2 mi South 12.7 mph - N/A   Scattered Clouds
9:30 AM 82.4 °F 86.3 °F 69.8 °F 66% 29.92 in 6.2 mi SSE 16.1 mph - N/A   Scattered Clouds
10:00 AM 84 °F - 69 °F 51% 29.93 in - SE 18.4 mph - -  
10:00 AM 84.2 °F 87.3 °F 68.0 °F 58% 29.92 in 6.2 mi SE 18.4 mph - N/A   Scattered Clouds
10:15 AM 84.2 °F 86.6 °F 66.2 °F 55% 29.92 in 6.2 mi SE 20.7 mph 33.4 mph N/A   Mostly Cloudy
10:30 AM 84.2 °F 87.3 °F 68.0 °F 58% 29.92 in 6.2 mi SE 21.9 mph - N/A   Mostly Cloudy
11:00 AM 84.2 °F 88.4 °F 69.8 °F 62% 29.89 in 6.2 mi SE 21.9 mph - N/A   Mostly Cloudy
11:30 AM 86.0 °F 89.4 °F 68.0 °F 55% 29.89 in 6.2 mi SE 21.9 mph - N/A   Mostly Cloudy
12:00 PM 86 °F - 70 °F 49% 29.88 in 19 mi SE 21.9 mph - -   Partly Cloudy
12:00 PM 86.0 °F 90.4 °F 69.8 °F 58% 29.86 in 6.2 mi SE 21.9 mph - N/A   Overcast
12:30 PM 86.0 °F 90.4 °F 69.8 °F 58% 29.86 in 6.2 mi SE 24.2 mph - N/A   Overcast
1:00 PM 85 °F - 69 °F 50% 29.86 in - SE 26.5 mph - -  
1:00 PM 84.2 °F 88.4 °F 69.8 °F 62% 29.86 in 6.2 mi SE 26.5 mph - N/A   Overcast
1:30 PM 84.2 °F 88.4 °F 69.8 °F 62% 29.83 in 6.2 mi SE 26.5 mph - N/A   Overcast
2:00 PM 86.0 °F 90.4 °F 69.8 °F 58% 29.83 in 6.2 mi SE 23.0 mph - N/A   Overcast
2:30 PM 86.0 °F 89.4 °F 68.0 °F 55% 29.83 in 6.2 mi SE 24.2 mph - N/A   Overcast
3:00 PM 86 °F - 69 °F 47% 29.83 in 19 mi SE 25.3 mph - -   Partly Cloudy
3:00 PM 86.0 °F 89.4 °F 68.0 °F 55% 29.83 in 6.2 mi SE 25.3 mph - N/A   Overcast
3:38 PM 82.4 °F 86.3 °F 69.8 °F 66% 29.83 in 6.2 mi SE 25.3 mph 36.8 mph N/A   Overcast
4:00 PM 83 °F - 70 °F 56% 29.83 in - SE 23.0 mph - -  
4:00 PM 82.4 °F 86.3 °F 69.8 °F 66% 29.83 in 6.2 mi SE 23.0 mph - N/A   Overcast
4:30 PM 84.2 °F 88.4 °F 69.8 °F 62% 29.83 in 6.2 mi SE 25.3 mph - N/A   Mostly Cloudy
5:00 PM 80.6 °F 84.6 °F 71.6 °F 74% 29.83 in 6.2 mi SE 21.9 mph - N/A   Mostly Cloudy
5:30 PM 80.6 °F 83.2 °F 68.0 °F 65% 29.83 in 6.2 mi SE 25.3 mph - N/A   Mostly Cloudy
5:50 PM 80.6 °F 83.9 °F 69.8 °F 70% 29.86 in 6.2 mi SSE 20.7 mph 32.2 mph N/A   Mostly Cloudy
6:00 PM 80 °F - 70 °F 64% 29.87 in - SSE 15.0 mph - -  
6:00 PM 80.6 °F 83.9 °F 69.8 °F 70% 29.86 in 6.2 mi SSE 15.0 mph - N/A   Mostly Cloudy
6:30 PM 78.8 °F - 68.0 °F 69% 29.86 in 6.2 mi SSE 12.7 mph - N/A   Mostly Cloudy
7:00 PM 79 °F - 69 °F 64% 29.90 in - SSE 17.3 mph - -  
7:00 PM 78.8 °F - 69.8 °F 74% 29.89 in 6.2 mi SSE 17.3 mph - N/A   Mostly Cloudy
7:30 PM 78.8 °F - 68.0 °F 69% 29.89 in 6.2 mi SSE 16.1 mph - N/A   Mostly Cloudy
8:00 PM 78.8 °F - 68.0 °F 69% 29.92 in 6.2 mi South 17.3 mph - N/A   Mostly Cloudy
8:30 PM 78.8 °F - 68.0 °F 69% 29.92 in 6.2 mi SSE 15.0 mph - N/A   Mostly Cloudy
9:00 PM 77 °F - 69 °F 68% 29.93 in - SSE 12.7 mph - -  
9:00 PM 77.0 °F - 68.0 °F 74% 29.92 in 6.2 mi SSE 12.7 mph - N/A   Scattered Clouds
9:30 PM 77.0 °F - 68.0 °F 74% 29.92 in 6.2 mi SSE 15.0 mph - N/A   Partly Cloudy
10:00 PM 77 °F - 68 °F 68% 29.94 in - SSE 13.8 mph - -  
10:00 PM 77.0 °F - 68.0 °F 74% 29.92 in 6.2 mi SSE 13.8 mph - N/A   Partly Cloudy
10:30 PM 77.0 °F - 68.0 °F 74% 29.92 in 6.2 mi South 13.8 mph - N/A   Partly Cloudy
11:00 PM 77.0 °F - 68.0 °F 74% 29.89 in 6.2 mi SSE 15.0 mph - N/A   Partly Cloudy
11:30 PM 77.0 °F - 69.8 °F 78% 29.89 in 6.2 mi SSE 15.0 mph - N/A   Partly Cloudy